2023/02/01 00:00:00,165.3,-4.2
2023/02/01 00:10:00,165.4,-4.3
2023/02/01 00:20:00,165.3,-4.5
2023/02/01 00:30:00,165.2,-4.5
2023/02/01 00:40:00,164.9,-4.5
2023/02/01 00:50:00,164.6,-4.5
2023/02/01 01:00:00,164.3,-4.3
2023/02/01 01:10:00,164.2,-4.6
2023/02/01 01:20:00,164.4,-4.8
2023/02/01 01:30:00,164.5,-4.4
2023/02/01 01:40:00,164.5,-4.6
2023/02/01 01:50:00,164.5,-4.6
2023/02/01 02:00:00,164.5,-4.7
2023/02/01 02:10:00,164.5,-4.6
2023/02/01 02:20:00,164.5,-4.7
2023/02/01 02:30:00,164.6,-5.1
2023/02/01 02:40:00,164.5,-4.9
2023/02/01 02:50:00,164.4,-4.8
2023/02/01 03:00:00,164.2,-4.9
2023/02/01 03:10:00,164.1,-4.9
2023/02/01 03:20:00,164.1,-4.8
2023/02/01 03:30:00,164.2,-4.5
2023/02/01 03:40:00,164.1,-4.8
2023/02/01 03:50:00,164.0,-4.5
2023/02/01 04:00:00,163.9,-4.8
2023/02/01 04:10:00,163.9,-4.8
2023/02/01 04:20:00,163.9,-4.8
2023/02/01 04:30:00,163.9,-4.7
2023/02/01 04:40:00,163.8,-4.6
2023/02/01 04:50:00,163.8,-4.4
2023/02/01 05:00:00,163.6,-4.6
2023/02/01 05:10:00,163.6,-4.6
2023/02/01 05:20:00,163.8,-4.8
2023/02/01 05:30:00,163.8,-4.8
2023/02/01 05:40:00,163.8,-4.7
2023/02/01 05:50:00,163.7,-4.3
2023/02/01 06:00:00,163.3,-4.6
2023/02/01 06:10:00,163.1,-4.4
2023/02/01 06:20:00,163.0,-4.4
2023/02/01 06:30:00,163.0,-4.3
2023/02/01 06:40:00,163.0,-4.0
2023/02/01 06:50:00,163.0,-3.5
2023/02/01 07:00:00,163.0,-3.3
2023/02/01 07:10:00,162.9,-2.5
2023/02/01 07:20:00,162.9,-2.6
2023/02/01 07:30:00,162.8,-2.7
2023/02/01 07:40:00,162.8,-2.3
2023/02/01 07:50:00,162.8,-1.7
2023/02/01 08:00:00,162.7,-1.7
2023/02/01 08:10:00,162.7,-1.4
2023/02/01 08:20:00,162.7,-1.0
2023/02/01 08:30:00,162.6,-0.8
2023/02/01 08:40:00,162.5,-0.7
2023/02/01 08:50:00,162.4,-0.7
2023/02/01 09:00:00,162.3,-0.3
2023/02/01 09:10:00,162.2,-0.1
2023/02/01 09:20:00,162.0, 0.2
2023/02/01 09:30:00,161.9, 0.4
2023/02/01 09:40:00,161.9, 0.4
2023/02/01 09:50:00,161.9, 0.6
2023/02/01 10:00:00,161.9, 0.9
2023/02/01 10:10:00,161.9, 1.5
2023/02/01 10:20:00,161.8, 2.1
2023/02/01 10:30:00,161.7, 2.2
2023/02/01 10:40:00,161.5, 1.7
2023/02/01 10:50:00,161.4, 1.3
2023/02/01 11:00:00,161.4, 1.9
2023/02/01 11:10:00,161.4, 1.9
2023/02/01 11:20:00,161.3, 2.3
2023/02/01 11:30:00,161.2, 2.6
2023/02/01 11:40:00,161.0, 2.8
2023/02/01 11:50:00,161.1, 3.6
2023/02/01 12:00:00,160.7, 2.8
2023/02/01 12:10:00,160.3, 2.1
2023/02/01 12:20:00,160.1, 1.9
2023/02/01 12:30:00,160.1, 1.4
2023/02/01 12:40:00,160.1, 1.3
2023/02/01 12:50:00,160.1, 1.4
2023/02/01 13:00:00,160.0, 2.3
2023/02/01 13:10:00,159.8, 2.8
2023/02/01 13:20:00,159.5, 2.9
2023/02/01 13:30:00,159.3, 3.4
2023/02/01 13:40:00,159.1, 3.7
2023/02/01 13:50:00,159.1, 4.6
2023/02/01 14:00:00,159.0, 4.6
2023/02/01 14:10:00,158.7, 4.0
2023/02/01 14:20:00,158.0, 3.2
2023/02/01 14:30:00,157.4, 3.1
2023/02/01 14:40:00,157.3, 3.1
2023/02/01 14:50:00,157.2, 2.4
2023/02/01 15:00:00,157.1, 2.3
2023/02/01 15:10:00,157.2, 2.2
2023/02/01 15:20:00,157.2, 2.0
2023/02/01 15:30:00,157.2, 1.6
2023/02/01 15:40:00,157.1, 1.4
2023/02/01 15:50:00,157.0, 1.1
2023/02/01 16:00:00,157.0, 1.4
2023/02/01 16:10:00,156.9, 1.6
2023/02/01 16:20:00,156.7, 1.5
2023/02/01 16:30:00,156.5, 1.5
2023/02/01 16:40:00,156.2, 1.4
2023/02/01 16:50:00,155.9, 1.1
2023/02/01 17:00:00,155.6, 1.1
2023/02/01 17:10:00,155.4, 1.1
2023/02/01 17:20:00,155.3, 0.7
2023/02/01 17:30:00,155.3, 0.6
2023/02/01 17:40:00,155.2, 0.5
2023/02/01 17:50:00,155.4, 0.6
2023/02/01 18:00:00,155.3, 0.5
2023/02/01 18:10:00,155.1, 0.4
2023/02/01 18:20:00,154.9, 0.6
2023/02/01 18:30:00,154.8, 0.4
2023/02/01 18:40:00,154.6, 0.4
2023/02/01 18:50:00,154.4, 0.1
2023/02/01 19:00:00,154.1, 0.5
2023/02/01 19:10:00,153.9, 0.4
2023/02/01 19:20:00,153.8, 0.3
2023/02/01 19:30:00,153.6,-0.1
2023/02/01 19:40:00,153.3, 0.4
2023/02/01 19:50:00,153.6, 1.2
2023/02/01 20:00:00,153.4, 0.7
2023/02/01 20:10:00,153.1, 0.6
2023/02/01 20:20:00,152.9, 0.8
2023/02/01 20:30:00,152.9, 0.4
2023/02/01 20:40:00,152.9, 0.3
2023/02/01 20:50:00,152.6, 0.6
2023/02/01 21:00:00,152.4, 0.1
2023/02/01 21:10:00,152.5,-0.1
2023/02/01 21:20:00,152.4, 0.0
2023/02/01 21:30:00,152.2, 0.1
2023/02/01 21:40:00,152.3, 0.0
2023/02/01 21:50:00,152.4, 0.0
2023/02/01 22:00:00,152.5,-0.2
2023/02/01 22:10:00,152.7, 0.0
2023/02/01 22:20:00,152.8, 0.1
2023/02/01 22:30:00,152.8,-0.1
2023/02/01 22:40:00,152.7, 0.0
2023/02/01 22:50:00,152.7, 0.0
2023/02/01 23:00:00,152.8,-0.3
2023/02/01 23:10:00,152.8, 0.0
2023/02/01 23:20:00,152.9,-0.3
2023/02/01 23:30:00,152.9, 0.1
2023/02/01 23:40:00,153.1,-0.4
2023/02/01 23:50:00,153.0,-0.7
